Time,TemperatureF,DewpointF,PressureIn,WindDirection,WindDirectionDegrees,WindSpeedMPH,WindSpeedGustMPH,Humidity,HourlyPrecipIn,Conditions,Clouds,dailyrainin,SoftwareType,DateUTC
2013-08-29 00:00:00,67.0,65.8,29.86,South,189,0.0,0.0,96,0.00,,,0.00,Wunderground v.1.15,2013-08-29 04:00:00,
2013-08-29 00:05:00,66.9,65.7,29.86,South,189,0.0,1.0,96,0.00,,,0.00,Wunderground v.1.15,2013-08-29 04:05:00,
2013-08-29 00:10:00,66.8,65.3,29.86,South,189,0.0,1.0,95,0.00,,,0.00,Wunderground v.1.15,2013-08-29 04:10:00,
2013-08-29 00:15:00,66.5,65.3,29.86,South,189,0.0,1.0,96,0.00,,,0.00,Wunderground v.1.15,2013-08-29 04:15:00,
2013-08-29 00:20:00,66.3,65.1,29.86,South,189,0.0,1.0,96,0.00,,,0.00,Wunderground v.1.15,2013-08-29 04:20:00,
2013-08-29 00:25:00,66.2,65.0,29.86,South,189,0.0,1.0,96,0.00,,,0.00,Wunderground v.1.15,2013-08-29 04:25:00,
2013-08-29 00:35:00,66.2,65.0,29.86,South,189,0.0,1.0,96,0.00,,,0.00,Wunderground v.1.15,2013-08-29 04:35:00,
2013-08-29 00:40:00,66.1,64.9,29.86,South,189,0.0,1.0,96,0.00,,,0.00,Wunderground v.1.15,2013-08-29 04:40:00,
2013-08-29 00:45:00,65.9,64.7,29.86,South,189,0.0,1.0,96,0.00,,,0.00,Wunderground v.1.15,2013-08-29 04:45:00,
2013-08-29 00:55:00,65.9,64.7,29.87,South,189,0.0,1.0,96,0.00,,,0.00,Wunderground v.1.15,2013-08-29 04:55:00,
2013-08-29 01:00:00,66.3,65.1,29.87,South,189,0.0,1.0,96,0.00,,,0.00,Wunderground v.1.15,2013-08-29 05:00:00,
2013-08-29 01:05:00,66.9,65.4,29.87,ESE,114,0.0,3.0,95,0.00,,,0.00,Wunderground v.1.15,2013-08-29 05:05:00,
2013-08-29 01:15:00,67.9,65.5,29.87,ESE,117,1.0,1.0,92,0.00,,,0.00,Wunderground v.1.15,2013-08-29 05:15:00,
2013-08-29 01:20:00,67.8,65.4,29.86,ESE,117,1.0,1.0,92,0.00,,,0.00,Wunderground v.1.15,2013-08-29 05:20:00,
2013-08-29 01:30:00,67.3,64.9,29.86,ESE,117,0.0,0.0,92,0.00,,,0.00,Wunderground v.1.15,2013-08-29 05:30:00,
2013-08-29 01:35:00,67.6,65.2,29.87,ESE,117,0.0,5.0,92,0.00,,,0.00,Wunderground v.1.15,2013-08-29 05:35:00,
2013-08-29 01:45:00,67.8,65.4,29.87,ESE,117,0.0,5.0,92,0.00,,,0.00,Wunderground v.1.15,2013-08-29 05:45:00,
2013-08-29 01:50:00,67.5,64.8,29.86,ESE,117,0.0,5.0,91,0.00,,,0.00,Wunderground v.1.15,2013-08-29 05:50:00,
2013-08-29 01:55:00,67.2,64.5,29.86,ESE,117,0.0,5.0,91,0.00,,,0.00,Wunderground v.1.15,2013-08-29 05:55:00,
2013-08-29 02:05:00,66.6,64.5,29.87,ESE,117,0.0,5.0,93,0.00,,,0.00,Wunderground v.1.15,2013-08-29 06:05:00,
2013-08-29 02:15:00,65.9,63.8,29.87,ESE,117,0.0,4.0,93,0.00,,,0.00,Wunderground v.1.15,2013-08-29 06:15:00,
2013-08-29 02:20:00,65.6,63.8,29.87,ESE,117,0.0,4.0,94,0.00,,,0.00,Wunderground v.1.15,2013-08-29 06:20:00,
2013-08-29 02:30:00,65.0,63.5,29.87,ESE,117,0.0,4.0,95,0.00,,,0.00,Wunderground v.1.15,2013-08-29 06:30:00,
2013-08-29 02:35:00,65.4,64.2,29.87,ESE,117,0.0,4.0,96,0.00,,,0.00,Wunderground v.1.15,2013-08-29 06:35:00,
2013-08-29 02:45:00,65.4,64.2,29.87,ESE,117,0.0,0.0,96,0.00,,,0.00,Wunderground v.1.15,2013-08-29 06:45:00,
2013-08-29 02:50:00,65.8,64.6,29.87,ESE,117,0.0,0.0,96,0.00,,,0.00,Wunderground v.1.15,2013-08-29 06:50:00,
2013-08-29 09:25:00,68.7,67.5,29.97,ESE,117,0.0,0.0,96,0.00,,,0.00,Wunderground v.1.15,2013-08-29 13:25:00,
2013-08-29 09:30:00,68.6,67.4,29.97,ESE,117,0.0,0.0,96,0.00,,,0.00,Wunderground v.1.15,2013-08-29 13:30:00,
2013-08-29 09:35:00,68.4,66.9,29.97,ESE,120,0.0,1.0,95,0.00,,,0.00,Wunderground v.1.15,2013-08-29 13:35:00,
2013-08-29 09:45:00,68.1,66.6,29.97,ESE,120,0.0,1.0,95,0.00,,,0.00,Wunderground v.1.15,2013-08-29 13:45:00,
2013-08-29 09:50:00,68.0,66.5,29.98,ESE,120,0.0,1.0,95,0.00,,,0.00,Wunderground v.1.15,2013-08-29 13:50:00,
2013-08-29 10:00:00,67.8,66.3,29.98,ESE,120,0.0,1.0,95,0.00,,,0.00,Wunderground v.1.15,2013-08-29 14:00:00,
2013-08-29 10:05:00,67.9,66.7,29.98,ESE,120,1.0,4.0,96,0.00,,,0.00,Wunderground v.1.15,2013-08-29 14:05:00,
2013-08-29 10:15:00,68.4,67.2,29.98,ESE,121,1.0,2.0,96,0.00,,,0.00,Wunderground v.1.15,2013-08-29 14:15:00,
2013-08-29 10:20:00,68.5,67.0,29.98,ESE,120,1.0,4.0,95,0.00,,,0.00,Wunderground v.1.15,2013-08-29 14:20:00,
2013-08-29 10:30:00,68.6,67.1,29.98,ESE,115,2.0,2.0,95,0.00,,,0.00,Wunderground v.1.15,2013-08-29 14:30:00,
2013-08-29 10:35:00,69.1,67.3,29.98,ESE,115,1.0,4.0,94,0.00,,,0.00,Wunderground v.1.15,2013-08-29 14:35:00,
2013-08-29 10:45:00,69.9,67.5,29.98,ESE,115,0.0,4.0,92,0.00,,,0.00,Wunderground v.1.15,2013-08-29 14:45:00,
2013-08-29 10:55:00,71.3,68.5,29.98,ESE,117,0.0,4.0,91,0.00,,,0.00,Wunderground v.1.15,2013-08-29 14:55:00,
2013-08-29 11:00:00,72.1,69.0,29.98,ESE,117,0.0,4.0,90,0.00,,,0.00,Wunderground v.1.15,2013-08-29 15:00:00,
2013-08-29 11:05:00,72.8,69.7,29.98,ESE,117,0.0,7.0,90,0.00,,,0.00,Wunderground v.1.15,2013-08-29 15:05:00,
2013-08-29 11:15:00,73.1,69.0,29.98,ESE,117,0.0,7.0,87,0.00,,,0.00,Wunderground v.1.15,2013-08-29 15:15:00,
2013-08-29 11:20:00,72.9,68.8,29.98,ESE,117,0.0,7.0,87,0.00,,,0.00,Wunderground v.1.15,2013-08-29 15:20:00,
2013-08-29 11:30:00,73.1,69.3,29.98,ESE,111,1.0,1.0,88,0.00,,,0.00,Wunderground v.1.15,2013-08-29 15:30:00,
2013-08-29 11:35:00,73.4,69.0,29.98,ESE,112,2.0,2.0,86,0.00,,,0.00,Wunderground v.1.15,2013-08-29 15:35:00,
2013-08-29 11:45:00,73.5,68.4,29.98,ESE,112,1.0,4.0,84,0.00,,,0.00,Wunderground v.1.15,2013-08-29 15:45:00,
2013-08-29 11:50:00,73.9,68.8,29.98,ESE,113,1.0,1.0,84,0.00,,,0.00,Wunderground v.1.15,2013-08-29 15:50:00,
2013-08-29 11:55:00,74.4,68.9,29.98,ESE,113,1.0,4.0,83,0.00,,,0.00,Wunderground v.1.15,2013-08-29 15:55:00,
2013-08-29 12:00:00,74.6,69.4,29.98,ESE,113,0.0,4.0,84,0.00,,,0.00,Wunderground v.1.15,2013-08-29 16:00:00,
2013-08-29 12:05:00,74.6,69.4,29.98,ESE,113,0.0,5.0,84,0.00,,,0.00,Wunderground v.1.15,2013-08-29 16:05:00,
2013-08-29 12:15:00,75.1,69.2,29.98,ESE,112,0.0,5.0,82,0.00,,,0.00,Wunderground v.1.15,2013-08-29 16:15:00,
2013-08-29 12:25:00,76.7,70.1,29.98,ESE,112,0.0,5.0,80,0.00,,,0.00,Wunderground v.1.15,2013-08-29 16:25:00,
2013-08-29 12:30:00,76.9,70.3,29.98,ESE,112,0.0,5.0,80,0.00,,,0.00,Wunderground v.1.15,2013-08-29 16:30:00,
2013-08-29 12:35:00,76.6,69.6,29.98,ESE,113,1.0,5.0,79,0.00,,,0.00,Wunderground v.1.15,2013-08-29 16:35:00,
2013-08-29 12:45:00,76.8,70.2,29.98,ESE,107,1.0,4.0,80,0.00,,,0.00,Wunderground v.1.15,2013-08-29 16:45:00,
2013-08-29 12:50:00,76.8,70.5,29.98,ESE,107,1.0,1.0,81,0.00,,,0.00,Wunderground v.1.15,2013-08-29 16:50:00,
2013-08-29 13:00:00,77.1,70.1,29.98,ESE,109,1.0,1.0,79,0.00,,,0.00,Wunderground v.1.15,2013-08-29 17:00:00,
2013-08-29 13:05:00,76.8,70.2,29.97,ESE,109,0.0,6.0,80,0.00,,,0.00,Wunderground v.1.15,2013-08-29 17:05:00,
2013-08-29 13:15:00,75.7,69.5,29.97,ESE,109,0.0,6.0,81,0.00,,,0.00,Wunderground v.1.15,2013-08-29 17:15:00,
2013-08-29 13:20:00,75.7,69.8,29.97,ESE,109,0.0,6.0,82,0.00,,,0.00,Wunderground v.1.15,2013-08-29 17:20:00,
2013-08-29 13:25:00,76.5,69.9,29.97,ESE,109,0.0,6.0,80,0.00,,,0.00,Wunderground v.1.15,2013-08-29 17:25:00,
2013-08-29 13:30:00,77.2,70.9,29.97,ESE,109,0.0,6.0,81,0.00,,,0.00,Wunderground v.1.15,2013-08-29 17:30:00,
2013-08-29 13:35:00,78.1,70.7,29.97,ESE,109,0.0,6.0,78,0.00,,,0.00,Wunderground v.1.15,2013-08-29 17:35:00,
2013-08-29 13:45:00,78.2,69.6,29.97,ESE,109,0.0,5.0,75,0.00,,,0.00,Wunderground v.1.15,2013-08-29 17:45:00,
2013-08-29 13:50:00,78.6,68.8,29.96,ESE,109,0.0,5.0,72,0.00,,,0.00,Wunderground v.1.15,2013-08-29 17:50:00,
2013-08-29 14:00:00,79.2,68.6,29.96,ESE,109,0.0,5.0,70,0.00,,,0.00,Wunderground v.1.15,2013-08-29 18:00:00,
2013-08-29 14:05:00,79.4,69.2,29.96,SSE,162,0.0,5.0,71,0.00,,,0.00,Wunderground v.1.15,2013-08-29 18:05:00,
2013-08-29 14:15:00,79.6,69.0,29.96,South,182,1.0,4.0,70,0.00,,,0.00,Wunderground v.1.15,2013-08-29 18:15:00,
2013-08-29 14:20:00,79.6,69.8,29.95,South,182,0.0,4.0,72,0.00,,,0.00,Wunderground v.1.15,2013-08-29 18:20:00,
2013-08-29 14:25:00,79.9,69.7,29.95,South,182,1.0,4.0,71,0.00,,,0.00,Wunderground v.1.15,2013-08-29 18:25:00,
2013-08-29 14:35:00,80.3,67.5,29.94,South,182,0.0,7.0,65,0.00,,,0.00,Wunderground v.1.15,2013-08-29 18:35:00,
2013-08-29 14:45:00,80.4,68.0,29.94,South,182,0.0,7.0,66,0.00,,,0.00,Wunderground v.1.15,2013-08-29 18:45:00,
2013-08-29 14:55:00,81.2,68.8,29.94,South,190,0.0,7.0,66,0.00,,,0.00,Wunderground v.1.15,2013-08-29 18:55:00,
2013-08-29 15:00:00,81.5,69.5,29.94,SSW,193,1.0,1.0,67,0.00,,,0.00,Wunderground v.1.15,2013-08-29 19:00:00,
2013-08-29 15:05:00,81.3,70.2,29.94,SSW,193,1.0,3.0,69,0.00,,,0.00,Wunderground v.1.15,2013-08-29 19:05:00,
2013-08-29 15:15:00,81.9,68.5,29.94,SSW,193,0.0,4.0,64,0.00,,,0.00,Wunderground v.1.15,2013-08-29 19:15:00,
2013-08-29 15:20:00,82.0,69.1,29.94,SSW,193,0.0,4.0,65,0.00,,,0.00,Wunderground v.1.15,2013-08-29 19:20:00,
2013-08-29 15:30:00,82.9,68.1,29.94,SSW,193,0.0,4.0,61,0.00,,,0.00,Wunderground v.1.15,2013-08-29 19:30:00,
2013-08-29 15:35:00,82.9,68.1,29.94,SSW,193,0.0,7.0,61,0.00,,,0.00,Wunderground v.1.15,2013-08-29 19:35:00,
2013-08-29 15:45:00,82.7,69.3,29.94,SSW,193,0.0,7.0,64,0.00,,,0.00,Wunderground v.1.15,2013-08-29 19:45:00,
2013-08-29 15:50:00,82.4,68.1,29.93,SSW,193,1.0,1.0,62,0.00,,,0.00,Wunderground v.1.15,2013-08-29 19:50:00,
2013-08-29 15:55:00,82.7,67.4,29.93,SSW,193,1.0,7.0,60,0.00,,,0.00,Wunderground v.1.15,2013-08-29 19:55:00,
2013-08-29 16:00:00,82.4,68.1,29.93,SSW,193,0.0,7.0,62,0.00,,,0.00,Wunderground v.1.15,2013-08-29 20:00:00,
2013-08-29 16:05:00,81.8,67.0,29.93,SSW,193,0.0,7.0,61,0.00,,,0.00,Wunderground v.1.15,2013-08-29 20:05:00,
2013-08-29 16:15:00,84.3,68.4,29.93,SSW,193,0.0,4.0,59,0.00,,,0.00,Wunderground v.1.15,2013-08-29 20:15:00,
2013-08-29 16:25:00,84.9,66.9,29.92,SSW,193,0.0,4.0,55,0.00,,,0.00,Wunderground v.1.15,2013-08-29 20:25:00,
2013-08-29 16:30:00,83.8,68.4,29.92,SSW,193,0.0,4.0,60,0.00,,,0.00,Wunderground v.1.15,2013-08-29 20:30:00,
2013-08-29 16:35:00,83.4,69.0,29.93,SSW,193,0.0,4.0,62,0.00,,,0.00,Wunderground v.1.15,2013-08-29 20:35:00,
2013-08-29 16:45:00,78.3,70.5,29.93,SSE,157,1.0,3.0,77,0.07,,,0.02,Wunderground v.1.15,2013-08-29 20:45:00,
2013-08-29 16:50:00,76.4,70.9,29.94,SSE,157,1.0,1.0,83,0.07,,,0.02,Wunderground v.1.15,2013-08-29 20:50:00,
2013-08-29 16:55:00,75.6,70.4,29.94,SSE,157,0.0,3.0,84,0.06,,,0.02,Wunderground v.1.15,2013-08-29 20:55:00,
2013-08-29 17:05:00,74.6,70.8,29.95,SSE,157,0.0,6.0,88,0.08,,,0.04,Wunderground v.1.15,2013-08-29 21:05:00,
2013-08-29 17:15:00,73.2,70.4,29.95,South,169,1.0,6.0,91,0.00,,,0.04,Wunderground v.1.15,2013-08-29 21:15:00,
2013-08-29 17:25:00,72.4,70.3,29.96,South,184,2.0,5.0,93,0.00,,,0.04,Wunderground v.1.15,2013-08-29 21:25:00,
2013-08-29 17:30:00,71.9,69.4,29.96,SSW,201,2.0,2.0,92,0.00,,,0.04,Wunderground v.1.15,2013-08-29 21:30:00,
2013-08-29 17:35:00,71.8,69.0,29.96,SSW,201,1.0,4.0,91,0.00,,,0.04,Wunderground v.1.15,2013-08-29 21:35:00,
2013-08-29 17:45:00,72.3,69.8,29.96,SSW,201,0.0,4.0,92,0.00,,,0.04,Wunderground v.1.15,2013-08-29 21:45:00,
2013-08-29 17:50:00,73.0,70.5,29.95,SSW,201,0.0,4.0,92,0.00,,,0.04,Wunderground v.1.15,2013-08-29 21:50:00,
2013-08-29 18:00:00,74.0,71.2,29.95,SSW,201,0.0,4.0,91,0.00,,,0.04,Wunderground v.1.15,2013-08-29 22:00:00,
2013-08-29 18:05:00,74.4,71.3,29.94,SSW,201,0.0,6.0,90,0.00,,,0.04,Wunderground v.1.15,2013-08-29 22:05:00,
2013-08-29 18:15:00,74.5,71.7,29.94,SSW,201,0.0,6.0,91,0.00,,,0.04,Wunderground v.1.15,2013-08-29 22:15:00,
2013-08-29 18:20:00,74.8,71.0,29.94,SSW,201,0.0,6.0,88,0.00,,,0.04,Wunderground v.1.15,2013-08-29 22:20:00,
2013-08-29 18:25:00,74.8,71.0,29.94,SSW,201,0.0,6.0,88,0.00,,,0.04,Wunderground v.1.15,2013-08-29 22:25:00,
2013-08-29 18:30:00,74.4,70.9,29.94,SSW,201,0.0,6.0,89,0.00,,,0.04,Wunderground v.1.15,2013-08-29 22:30:00,
2013-08-29 18:35:00,73.8,70.7,29.95,SSW,201,0.0,6.0,90,0.00,,,0.04,Wunderground v.1.15,2013-08-29 22:35:00,
2013-08-29 18:45:00,71.9,69.1,29.95,SSW,201,0.0,0.0,91,0.00,,,0.04,Wunderground v.1.15,2013-08-29 22:45:00,
2013-08-29 18:50:00,71.3,69.2,29.95,SSW,201,0.0,0.0,93,0.00,,,0.04,Wunderground v.1.15,2013-08-29 22:50:00,
2013-08-29 19:00:00,70.8,69.3,29.95,SSW,201,0.0,0.0,95,0.00,,,0.04,Wunderground v.1.15,2013-08-29 23:00:00,
2013-08-29 19:05:00,70.8,69.3,29.95,SSW,201,0.0,0.0,95,0.00,,,0.04,Wunderground v.1.15,2013-08-29 23:05:00,
2013-08-29 19:15:00,70.6,69.4,29.95,SSW,201,0.0,0.0,96,0.00,,,0.04,Wunderground v.1.15,2013-08-29 23:15:00,
2013-08-29 19:20:00,70.6,69.4,29.94,SSW,201,0.0,0.0,96,0.00,,,0.04,Wunderground v.1.15,2013-08-29 23:20:00,
2013-08-29 19:25:00,70.4,69.2,29.94,SSW,201,0.0,0.0,96,0.00,,,0.04,Wunderground v.1.15,2013-08-29 23:25:00,
2013-08-29 19:35:00,69.7,68.5,29.95,SSW,201,0.0,0.0,96,0.00,,,0.04,Wunderground v.1.15,2013-08-29 23:35:00,
2013-08-29 19:45:00,68.9,67.7,29.95,SSW,201,0.0,0.0,96,0.00,,,0.04,Wunderground v.1.15,2013-08-29 23:45:00,
2013-08-29 19:55:00,68.7,67.5,29.96,SSW,201,0.0,0.0,96,0.00,,,0.04,Wunderground v.1.15,2013-08-29 23:55:00,
2013-08-29 20:00:00,68.4,67.2,29.96,SSW,201,0.0,0.0,96,0.00,,,0.04,Wunderground v.1.15,2013-08-30 00:00:00,
2013-08-29 20:05:00,68.2,67.3,29.96,SSW,201,0.0,0.0,97,0.00,,,0.04,Wunderground v.1.15,2013-08-30 00:05:00,
2013-08-29 20:10:00,68.2,67.3,29.96,SSW,201,0.0,0.0,97,0.00,,,0.04,Wunderground v.1.15,2013-08-30 00:10:00,
2013-08-29 20:20:00,68.4,67.5,29.96,SSW,201,0.0,0.0,97,0.00,,,0.04,Wunderground v.1.15,2013-08-30 00:20:00,
2013-08-29 20:25:00,68.3,67.4,29.96,SSW,201,0.0,0.0,97,0.00,,,0.04,Wunderground v.1.15,2013-08-30 00:25:00,
2013-08-29 20:35:00,68.0,67.1,29.95,SSW,201,0.0,0.0,97,0.00,,,0.04,Wunderground v.1.15,2013-08-30 00:35:00,
2013-08-29 20:45:00,67.5,66.6,29.95,SSW,201,0.0,0.0,97,0.00,,,0.04,Wunderground v.1.15,2013-08-30 00:45:00,
2013-08-29 20:50:00,67.2,66.3,29.95,SSW,201,0.0,0.0,97,0.00,,,0.04,Wunderground v.1.15,2013-08-30 00:50:00,
2013-08-29 20:55:00,67.0,66.1,29.95,SSW,201,0.0,0.0,97,0.00,,,0.04,Wunderground v.1.15,2013-08-30 00:55:00,
2013-08-29 21:00:00,66.9,66.0,29.95,SSW,201,0.0,0.0,97,0.00,,,0.04,Wunderground v.1.15,2013-08-30 01:00:00,
2013-08-29 21:05:00,66.9,66.3,29.96,SSW,201,0.0,0.0,98,0.00,,,0.04,Wunderground v.1.15,2013-08-30 01:05:00,
2013-08-29 21:15:00,66.8,66.2,29.96,SSW,201,0.0,0.0,98,0.00,,,0.04,Wunderground v.1.15,2013-08-30 01:15:00,
2013-08-29 21:20:00,66.7,66.1,29.96,SSW,201,0.0,0.0,98,0.00,,,0.04,Wunderground v.1.15,2013-08-30 01:20:00,
2013-08-29 21:30:00,66.1,65.5,29.96,SSW,201,0.0,0.0,98,0.00,,,0.04,Wunderground v.1.15,2013-08-30 01:30:00,
2013-08-29 21:35:00,65.9,65.3,29.96,SSW,201,0.0,0.0,98,0.00,,,0.04,Wunderground v.1.15,2013-08-30 01:35:00,
2013-08-29 21:45:00,65.9,65.3,29.96,SSW,201,0.0,0.0,98,0.00,,,0.04,Wunderground v.1.15,2013-08-30 01:45:00,
2013-08-29 21:50:00,66.7,66.4,29.96,SSW,201,0.0,2.0,99,0.00,,,0.04,Wunderground v.1.15,2013-08-30 01:50:00,
2013-08-29 21:55:00,66.6,66.0,29.96,SSW,201,0.0,2.0,98,0.00,,,0.04,Wunderground v.1.15,2013-08-30 01:55:00,
2013-08-29 22:05:00,66.8,66.2,29.96,SSW,201,1.0,1.0,98,0.00,,,0.04,Wunderground v.1.15,2013-08-30 02:05:00,
2013-08-29 22:15:00,66.5,65.6,29.96,SSW,201,0.0,0.0,97,0.00,,,0.04,Wunderground v.1.15,2013-08-30 02:15:00,
2013-08-29 22:25:00,66.4,65.5,29.96,SSW,201,0.0,0.0,97,0.00,,,0.04,Wunderground v.1.15,2013-08-30 02:25:00,
2013-08-29 22:30:00,66.5,65.6,29.96,SSW,201,0.0,2.0,97,0.00,,,0.04,Wunderground v.1.15,2013-08-30 02:30:00,
2013-08-29 22:35:00,66.6,66.0,29.95,SSW,201,1.0,4.0,98,0.00,,,0.04,Wunderground v.1.15,2013-08-30 02:35:00,
2013-08-29 22:45:00,66.6,65.7,29.95,SSW,201,1.0,4.0,97,0.00,,,0.04,Wunderground v.1.15,2013-08-30 02:45:00,
2013-08-29 22:50:00,66.6,65.7,29.95,SSW,201,0.0,4.0,97,0.00,,,0.04,Wunderground v.1.15,2013-08-30 02:50:00,
2013-08-29 22:55:00,66.7,65.8,29.95,SSW,201,0.0,4.0,97,0.00,,,0.04,Wunderground v.1.15,2013-08-30 02:55:00,
2013-08-29 23:05:00,66.7,65.8,29.94,SSW,201,1.0,4.0,97,0.00,,,0.04,Wunderground v.1.15,2013-08-30 03:05:00,
2013-08-29 23:15:00,66.8,65.9,29.94,SSW,201,1.0,4.0,97,0.00,,,0.04,Wunderground v.1.15,2013-08-30 03:15:00,
2013-08-29 23:20:00,67.0,66.1,29.94,SSW,201,1.0,1.0,97,0.00,,,0.04,Wunderground v.1.15,2013-08-30 03:20:00,
2013-08-29 23:25:00,67.2,66.3,29.94,SSW,201,1.0,3.0,97,0.00,,,0.04,Wunderground v.1.15,2013-08-30 03:25:00,
2013-08-29 23:35:00,67.0,66.1,29.94,SSW,201,2.0,4.0,97,0.00,,,0.04,Wunderground v.1.15,2013-08-30 03:35:00,
2013-08-29 23:45:00,66.9,66.0,29.94,SSW,201,1.0,4.0,97,0.00,,,0.04,Wunderground v.1.15,2013-08-30 03:45:00,
2013-08-29 23:50:00,67.0,66.1,29.94,SSW,201,1.0,1.0,97,0.00,,,0.04,Wunderground v.1.15,2013-08-30 03:50:00,